Showing default

BEIDOU 3M12, 43603

Orbit data source: Space-Track

BEIDOU 3M12, 43603 is a payload satellite owned by CNSA (CN) in MEO that was launched on Fri, 24 Aug 2018 UTC via a CHANG ZHENG 3B/YZ-1 launch vehicle from the Xichang Space Center, China (XSC). Payload-class satellites include a variety of spacecraft equipped with specific instruments for various scientific and technological missions. These include communications satellites like Starlink; space stations such as the ISS; scientific satellites like the Hubble; Earth observation satellites from companies like Planet Labs, Umbra, and HawkEye 360; GPS; miniature CubeSats for education and research; and military/defense satellites.

Loading next visibility...
Identifier
43603, 2018-067B
Orbit
MEO
Country
Flag of CNCN / PRC
Related business
Manufacturer
SECM
Mission
Operational Defense Navigation
Bus & Motor
BD-3M2, Unknown motor
Mass
1,014 kg wet, ~850 kg dry
Launch date (UTC)
2018-08-24 (7 years ago)
Launch vehicle
CHANG ZHENG 3B/YZ-1
Launch site
Xichang Space Center, China (XSC)
Object type
Payload
Rocket body
Debris
Shape & HBR
Box + 2 Pan, 5.0 m
Radar Cross Section
8.984 m², Large (>1 m²)

Expand to show TLE details & history
Last TLE update: 2 days ago

TLE from 2 days ago
0 BEIDOU 3M12
1 43603U 18067B   25258.65727728 -.00000024  00000-0  00000-0 0  9991
2 43603  54.1857 190.3152 0004771  18.3829 341.6253  1.86227093 48036
Epoch: 2025-09-15T15:46Z
TLE epoch observation values (Epoch: 2025-09-15T15:46:28.756Z)
Latitude
-0.00004°
Longitude
-41.16984°
Altitude
21,516.06 km
Speed
3.781 km/s
True Right ascension
12h 41m 14s
True Declination
0° 00' 00"
Sunlit
Object was in daylight at epoch
Visualization orbit readout
Latitude
Unknown
Longitude
Unknown
Altitude
Unknown
Speed
Unknown
Apparent Right ascension
Unknown
Apparent Declination
Unknown
Sunlit
N/A
Visualization observer readout
Local Sidereal Time
22:58:12
Azimuth
Unknown
Elevation
Unknown
Doppler factor
Unknown
Orbital elements
Apogee altitude
21,541.795 km
Perigee altitude
21,515.166 km
Semi-major axis
27,906.617 km
Eccentricity
0.00048
Inclination
54.1857°
RAAN
190.3152°
Arg. of periapsis
18.3829°
True anomaly
341.60806°
Mean anomaly
341.6253°
Eccentric anomaly
341.61668°
Mean motion
0.46557 °/min
Orbital period
773.25 mins
BSTAR
0
Loading maneuver chart data...
Computing Atmospheric mass density...
Loading historical data...
Loading historical data...
Loading historical data...
Loading historical data...
Loading historical data...
Loading historical data...
Loading historical data...
Other satellites on launch #67 in the year 2018 (2018-08-24 UTC)

Documentation

Showing up to 5 results
|